Погода в Капитолийском холме

Северные Марианские острова     15°12′00″N   145°45′06″E
темп.,
°C
ветер,
м/с
пор.,
м/с
влажн.,
%
обл.,
%
осадки,
мм/ч
давл.,
гПа
погр.,
м
15 мая, сб
сб1501:00+28в89771 0.1 1011989
04:00+28в89764 0.1 1011990
07:00+28в99771 0.1 1012975
10:00+28в910775 0.3 10131008
13:00+28в910774 0.1 1011969
16:00+28в89772 0.2 1010944
19:00+28в897817 0.3 1011903
22:00+28в9107749 0.4 10121013
16 мая, вс
вс1601:00+28в997419 0.2 10111109
04:00+28в89775 0.6 1010969
07:00+28в99745 0.1 10121054
10:00+28в897115 0.2 10121074
13:00+29в89754 0.0 10111001
16:00+28в78715 0.1 10101029
19:00+28в89755 0.0 10111038
22:00+28всв8976100 0.0 10121058
17 мая, пн
пн1701:00+28в897599 0.3 10111030
04:00+28в8976100 0.3 10101002
07:00+28в8976100 0.3 1012971
10:00+28в9976100 0.6 1012980
13:00+29в8873100 0.6 10101005
16:00+28в8976100 1.3 1010969
19:00+28в8977100 0.1 1011993
22:00+28в91077100 0.3 1012978
18 мая, вт
вт1801:00+28в8976100 0.1 1011979
04:00+28в8975100 0.3 10101029
07:00+28в8974100 0.0 1012954
10:00+28в91076100 0.2 1012999
13:00+29в8976100 0.2 10101003
16:00+28в8977100 0.4 1009930
19:00+28в91077100 0.4 1010970
22:00+28в9107752 0.9 1012983
19 мая, ср
ср1901:00+28в91077100 0.1 1010970
04:00+28всв9107797 0.5 1010972
07:00+28в91076100 0.1 10111038
10:00+28всв8977100 0.1 10111029
13:00+29в8976100 0.1 10101010
16:00+29всв897897 0.5 10091004
19:00+28всв91076100 0.5 1011987
22:00+28всв91077100 1.1 10121064